EHI
0 0 0 0 0 0 0 0 0 0 0 0 0 0 0 0 0 0 0 0 0 0 0 0 0 0 0 0 0 0 0 0 0 0 0 0 0 0
0 0 0 0 0 0 0 0 0 0 0 0 0 0 0 0 0 0 0 0 0 0 0 0 0 0 0 0 0 0 0 0 0 0 0 0 0 0
0 0 0 0 0 0 0 0 0 0 0 0 0 0 0 0 0 0 0 0 0 0 0 0 0 0 0 0 0 0 0 0 0 0 0 0 0 0
0 0 0 0 0 0 0 0 0 0 0 0 0 0 0 0 0 0 0 0 0 0 0 0 0 0 0 0 0 0 0 0 0 0 0 0 0 0
0 0 0 0 0 0 0 0 0 0 0 0 0 0 0 0 0 0 0 0 0 0 0 0 0 0 0 0 0 0 0 0 0 0 0 0 0 0
0 0 0 0 1 0 0 0 0 0 0 0 0 0 0 0 0 0 0 0 0 0 0 0 0 0 0 0 0 0 0 0 0 0 0 0 0 0
0 0 0 0 0 0 0 0 0 0 0 0 0 0 0 0 0 0 0 0 0 0 0 0 0 0 0 0 0 0 0 0 0 0 0 0 0 0
0 0 0 0 0 0 0 0 0 0 0 0 0 0 0 0 0 0 0 0 0 0 0 0 0 0 0 0 0 0 0 0 0 0 0 0 0 0
0 0 0 0 0 0 0 0 0 0 0 0 0 0 0 0 0 0 0 0 0 0 0 0 0 0 0 0 0 0 0 0 0 0 0 0 0 0
0 0 0 0 0 0 0 0 0 0 0 0 0 0 0 0 0 0 0 0 0 0 0 0 0 0 0 0 0 0 0 0 0 0 0 0 0 0
0 0 0 0 0 0 0 0 0 0 0 0 0 0 0 0 0 0 0 0 0 0 0 0 0 0 0 0 0 0 0 0 0 0 0 0 0 0
0 0 0 0 0 0 0 0 0 0 0 0 0 0 0 0 0 0 0 0 0 0 0 0 0 0 0 0 0 0 0 0 0 0 0 0 0 0
0 0 0 0 0 0 0 0 0 0 0 0 0 0 0 0 0 0 0 0 0 0 0 0 0 0 0 0 0 0 0 0 0 0 0 0 0 0
0 0 0 0 0 0 0 0 0 0 0 0 0 0 0 0 0 0 0 0 0 0 0 0 0 0 0 0 0 0 0 0 0 0 0 0 0 0
0 0 0 0 0 0 0 0 0 0 0 0 0 0 0 0 0 0 0 0 0 0 0 0 0 0 0 0 0 0 0 0 0 0 0 0 0 0
0 0 0 0 0 0 0 0 0 0 0 0 0 0 0 0 0 0 0 0 0 0 0 0 0 0 0 0 0 0 0 0 0 0 0 0 0 0
0 0 0 0 0 0 0 0 0 0 0 0 0 0 0 0 0 0 0 0 0 0 0 0 0 0 0 0 0 0 0 0 0 0 0 0 0 0
0 0 0 0 0 0 0 0 0 0 0 0 0 0 0 0 0 0 0 0 0 0 0 0 0 0 0 0 0 0 0 0 0 0 0 0 0 0
0 0 0 0 0 0 0 0 0 0 0 0 0 0 0 0 0 0 0 0 0 0 0 0 0 0 0 0 0 0 0 0 0 0 0 0 0 0
0 0 0 0 0 0 0 0 0 0 0 0 0 0 0 0 0 0 0 0 0 0 0 0 0 0 0 0 0 0 0 0 0 0 0 0 0 0
0 0 0 0 0 0 0 0 0 0 0 0 0 0 0 0 0 0 0 0 0 0 0 0 0 0 0 0 0 0 0 0 0 0 0 0 0 0
0 0 0 0 0 0 0 0 0 0 0 0 0 0 0 0 0 0 0 0 0 0 0 0 0 0 0 0 0 0 0 0 0 0 0 0 0 0
0 0 0 0 0 0 0 0 0 0 0 0 0 0 0 0 0 0 0 0 0 0 0 0 0 0 0 0 0 0 0 0 0 0 0 0 0 0
Wind_Speed
1 0 1 0 0 0 1 1 2 1 1 1 1 1 2 2 3 2 2 3 3 2 2 2 2 2 3 3 3 3 3 2 1 1 2 2 2 2
1 1 0 0 0 1 0 0 1 2 1 1 1 1 2 2 4 2 2 4 3 2 2 2 2 2 2 2 2 2 2 2 1 1 2 2 2 2
1 2 2 1 1 1 0 0 0 1 1 1 0 2 2 2 2 1 2 2 2 3 3 2 2 1 1 1 1 1 1 2 2 1 3 3 2 2
2 1 2 1 1 1 1 1 1 1 2 1 0 1 1 2 2 2 1 2 2 3 3 3 1 1 1 1 1 1 1 2 2 2 3 2 2 1
2 2 2 1 2 1 2 1 1 0 1 2 1 0 1 1 2 1 1 1 1 2 4 3 3 2 2 2 2 1 0 0 1 1 1 1 1 1
2 1 1 1 2 1 1 1 1 1 1 1 1 1 1 1 2 1 0 1 1 1 1 2 3 3 4 4 3 2 2 1 1 1 1 1 1 2
1 2 2 2 3 2 1 1 1 1 1 1 1 1 1 1 1 1 1 1 1 1 1 1 1 1 2 4 4 4 3 3 3 3 3 3 3 3
2 2 2 2 2 3 3 2 3 2 2 2 2 2 2 2 1 1 1 1 1 1 1 1 1 2 2 2 4 5 6 5 5 5 5 4 4 4
2 1 2 2 3 2 2 2 2 3 3 2 2 2 2 2 2 2 2 2 3 2 1 2 2 2 2 3 6 6 6 6 6 6 6 6 6 6
1 1 1 2 2 3 2 2 2 2 3 2 2 2 2 2 3 3 3 2 1 1 2 2 2 2 2 2 6 7 7 7 7 7 7 7 6 6
2 1 1 1 2 2 2 2 2 2 2 3 3 3 4 3 2 1 1 1 2 2 2 2 1 1 2 2 4 6 6 6 7 8 8 7 7 6
1 1 1 1 1 2 2 2 3 2 2 1 2 3 3 3 3 3 3 2 1 2 2 2 1 1 2 2 2 2 4 5 7 8 8 8 7 4
1 1 1 1 1 2 2 2 3 2 2 2 2 2 2 2 2 2 2 2 2 3 3 2 1 1 2 2 2 2 2 2 3 4 7 8 7 6
2 1 1 2 2 2 2 2 1 1 1 1 1 2 2 2 2 3 3 3 3 3 3 2 2 2 2 2 3 2 2 2 3 3 3 5 7 8
1 1 1 2 3 2 2 2 1 1 1 1 2 2 2 2 1 1 2 2 2 2 2 2 2 2 2 3 3 2 2 3 3 3 3 3 3 3
1 1 1 1 1 1 1 2 2 2 2 2 2 2 1 1 1 1 1 1 1 2 3 2 2 2 2 3 3 3 2 2 3 3 3 3 3 3
1 1 1 1 1 1 1 1 2 2 2 2 2 2 2 2 2 1 1 1 1 2 3 2 2 1 2 3 3 4 3 3 3 3 2 3 4 4
2 2 2 2 3 3 3 2 2 2 2 2 2 2 2 2 2 1 1 2 3 3 3 2 1 1 2 3 5 5 4 4 3 3 3 4 5 4
3 2 2 2 2 2 2 2 2 2 2 2 2 2 2 2 2 2 2 2 3 3 3 2 1 1 3 5 4 4 4 4 3 3 4 4 6 5
2 2 2 2 2 2 2 2 1 1 1 1 1 1 2 2 2 3 3 3 3 3 3 2 2 3 5 5 4 4 5 4 3 4 4 4 4 5
2 2 2 2 2 2 2 1 1 1 1 1 1 1 1 1 2 2 2 4 3 3 4 4 4 5 3 2 3 4 4 5 5 4 3 3 4 4
2 2 2 2 2 1 1 1 1 1 1 1 2 1 1 1 2 2 2 2 2 3 4 3 3 2 2 3 5 5 5 4 5 7 7 6 3 4
3 2 2 2 2 1 1 2 2 1 1 1 1 1 1 1 2 2 2 2 2 3 3 3 2 2 3 3 4 4 5 5 3 3 5 8 11 12
Wind_Direction
215 140 150 178 129 104 116 138 147 165 251 204 107 143 126 113 128 127 127 118 106 100 105 100 79 62 53 52 54 53 45 36 46 95 104 105 104 101
164 111 176 159 142 136 142 288 140 156 199 224 165 156 137 131 134 146 146 139 134 133 126 122 109 95 88 83 68 57 45 30 14 152 143 121 108 104
208 189 200 180 165 168 154 281 251 135 157 258 135 144 129 145 142 160 155 148 149 153 151 149 145 134 117 96 85 52 45 28 21 136 132 120 114 108
224 221 218 186 183 192 183 233 234 178 154 176 216 150 149 170 150 166 155 152 156 165 171 163 159 163 183 193 129 78 57 45 48 100 124 132 130 123
217 215 225 190 201 202 184 199 217 169 146 157 203 197 169 152 127 139 156 183 190 182 180 182 191 205 217 215 197 184 140 120 72 86 137 168 204 220
221 199 200 183 185 194 184 186 164 139 143 149 175 197 181 161 132 152 220 230 250 209 178 187 196 209 222 221 214 202 201 216 218 218 224 234 245 251
219 185 189 163 134 147 150 161 153 163 166 160 180 198 203 164 188 192 200 246 267 215 174 216 195 202 215 226 224 221 220 226 231 228 229 236 243 246
227 206 187 173 160 161 152 159 168 173 185 183 196 197 211 196 180 188 193 210 274 244 183 251 195 206 215 211 220 223 223 224 229 231 234 235 239 243
243 222 219 179 166 160 178 189 203 212 197 192 201 213 205 197 181 199 209 211 231 225 169 256 237 225 232 230 221 217 218 222 229 234 239 240 240 243
233 230 217 198 179 171 186 188 203 220 213 197 191 222 227 217 203 203 209 224 266 248 161 230 241 242 246 233 219 215 219 224 228 232 240 244 242 242
245 239 239 191 162 161 178 200 207 229 216 189 200 218 234 232 209 160 185 184 275 267 215 195 237 260 255 244 228 218 220 226 232 238 241 245 243 240
250 205 156 162 167 186 198 200 211 218 198 215 232 236 226 218 199 181 183 190 225 258 229 192 220 194 278 251 222 223 224 234 238 243 245 243 242 236
243 227 205 177 192 224 224 206 218 220 201 208 211 216 208 203 204 206 199 194 214 241 229 188 216 203 218 268 268 229 206 231 236 244 244 243 239 225
246 220 198 187 206 231 228 225 227 236 209 208 209 218 214 212 211 212 215 225 236 242 234 196 214 214 226 259 266 260 245 230 219 224 230 242 239 237
246 228 202 205 209 217 233 225 203 189 198 224 228 230 226 220 203 209 224 224 256 269 261 247 237 233 221 240 258 259 270 262 227 225 228 228 230 228
253 246 205 193 209 251 246 224 216 208 204 223 234 240 225 196 201 194 212 225 257 281 281 265 252 228 241 253 254 264 250 253 257 240 233 238 239 229
198 178 169 185 210 227 233 222 214 212 223 230 234 239 230 218 226 215 198 201 238 264 282 288 280 247 231 239 256 260 259 261 255 252 247 258 249 239
169 186 202 206 210 212 214 219 216 214 218 223 224 230 225 220 230 235 214 216 237 253 260 262 277 318 319 287 235 245 252 255 257 252 249 259 266 255
177 202 212 216 220 219 215 216 221 224 221 221 227 230 232 232 231 235 231 232 243 250 257 251 233 219 263 276 279 233 240 257 258 258 250 248 260 264
202 208 217 222 221 217 214 219 228 229 222 223 231 234 235 236 242 240 239 241 248 253 259 252 236 232 241 257 270 277 240 235 249 259 265 262 262 270
217 216 214 211 211 215 222 219 216 222 224 223 230 238 244 249 255 256 252 264 267 263 261 259 254 257 259 270 279 278 271 241 238 246 259 273 281 278
213 211 214 210 208 209 217 218 220 221 221 222 226 232 238 239 253 264 264 268 268 269 275 281 288 283 267 259 265 270 279 282 264 260 260 248 246 257
203 202 209 206 198 200 204 209 218 226 229 229 234 240 243 250 252 257 262 265 273 280 289 294 299 284 268 264 268 271 275 279 278 276 271 265 259 260